{"data":{"norad_id":63144,"epoch":"2026-09-21T02:13:40.397952Z","epoch_age_seconds":111022,"freshness":"FRESH","line1":"1 63144U 25043N   26264.09282868  .00150149  00000+0  11513-2 0  9997","line2":"2 63144  43.0008 152.9164 0001407 267.6658  92.4049 15.70867877 90200","mean_motion":15.70867877,"eccentricity":0.0001407,"inclination_deg":43.0008,"raan_deg":152.9164,"arg_perigee_deg":267.6658,"mean_anomaly_deg":92.4049,"bstar":0.0011513,"rev_number":9020,"period_min":91.669071669482,"perigee_km":355.46783354303,"apogee_km":357.36293658419,"semimajor_km":6734.5523850636,"source":"CELESTRAK","updated_at":"2026-09-22T09:00:49.792350Z"}}